Location: ?????
(55.6500°N, 37.2500°E)
Time: 02:39:09
(UTC+00:00)

SL-14 R/B - Pass Details

Date: 19 May 2025
Orbit: 501 x 530 km, 82.4° (Epoch: 15 June)

Event Time Altitude Azimuth Distance (km) Brightness Sun altitude
Exits shadow 22:19:05 23° 183° (S) 1,127 4.3 -13.6°
Maximum altitude 22:21:22 77° 100° (E) 542 3.2 -13.5°
Drops below altitude 10° 22:25:16 10° 15° (NNE) 1,777 7.4 -13.4°
Sets 22:27:26 0° 14° (NNE) 2,675 8.9 -13.3°
